STARLINK-30756, 58129

Orbit data source: Space-Track

STARLINK-30756, 58129 is a payload satellite owned by SpaceX/Seattle (US) in LEO that was launched on Sun, 22 Oct 2023 UTC via an FALCON 9 launch vehicle from the Air Force Eastern Test Range (AFETR). Payload-class satellites include a variety of spacecraft equipped with specific instruments for various scientific and technological missions. These include communications satellites like Starlink; space stations such as the ISS; scientific satellites like the Hubble; Earth observation satellites from companies like Planet Labs, Umbra, and HawkEye 360; GPS; miniature CubeSats for education and research; and military/defense satellites.

Loading next visibility...
Identifier
58129, 2023-162M
Orbit
LEO
Country
Flag of USUS
Related business
Manufacturer
SpaceX/Seattle
Mission
Operational Commercial Communications
Bus & Motor
STARLINK V2M, Unknown motor
Mass
730 kg wet, ~700 kg dry
Launch date (UTC)
2023-10-22 (2 years ago)
Launch vehicle
FALCON 9
Launch site
Air Force Eastern Test Range (AFETR)
Object type
Payload
Rocket body
Debris
Shape & HBR
Box + 2 Pan, 17.7 m
Radar Cross Section
33.884 m², Large (>1 m²)

Expand to show TLE details & history
Last TLE update: 22 hours ago

TLE from 22 hours ago
0 STARLINK-30756
1 58129U 23162M   25348.70321852  .00001266  00000-0  10877-3 0  9990
2 58129  43.0043 235.0549 0001286 260.3558  99.7139 15.02528988119518
Epoch: 2025-12-14T16:52Z
TLE epoch observation values (Epoch: 2025-12-14T16:52:38.080Z)
Latitude
-0.00001°
Longitude
-101.71611°
Altitude
559.03 km
Speed
7.584 km/s
True Right ascension
15h 40m 13s
True Declination
0° 00' 00"
Sunlit
Object was in daylight at epoch
Visualization orbit readout
Latitude
Unknown
Longitude
Unknown
Altitude
Unknown
Speed
Unknown
Apparent Right ascension
Unknown
Apparent Declination
Unknown
Sunlit
N/A
Visualization observer readout
Local Sidereal Time
13:24:38
Azimuth
Unknown
Elevation
Unknown
Doppler factor
Unknown
Orbital elements
Apogee altitude
561.917 km
Perigee altitude
560.132 km
Semi-major axis
6,939.161 km
Eccentricity
0.00013
Inclination
43.0043°
RAAN
235.0549°
Arg. of periapsis
260.3558°
True anomaly
99.72842°
Mean anomaly
99.7139°
Eccentric anomaly
99.72116°
Mean motion
3.75476 °/min
Orbital period
95.88 mins
BSTAR
0.00010877
Loading maneuver chart data...
Computing Atmospheric mass density...
Loading historical data...
Loading historical data...
Loading historical data...
Loading historical data...
Loading historical data...
Loading historical data...
Loading historical data...

Documentation

Showing up to 5 results
|